Find Kosmos-480

NORAD ID: 5905 Int'l Des: 1972-019 Owner: OKB10 Country: SU operational
LEOCIRCULARPOLAR

Current View

Loading 3D Globe...

About Kosmos-480

Kosmos-480 (NORAD 5905) is a satellite by OKB10 of SU. It operates in LEO, CIRCULAR, POLAR orbit

Upcoming Passes

Passes for default location (London). Set your location on the main map for personalized predictions.

Altitude History

Loading altitude history...

Two-Line Element Set

1 5905U 72019A 26195.14993161 .00000025 00000-0 31004-4 0 9994
2 5905 82.9749 276.1131 0017796 332.4694 47.4982 13.19938431615662
Epoch: Jul 14, 2026 • Age: 9 hours

Current Status

Altitude 1198.5 km
Apogee / Perigee N/A
Velocity 7.26 km/s
Sub-Earth Point 68.20°N, 167.16°E
Type other

Most Searched